Location: Powder Track
(41.8531°N, 72.3584°W)
Time: 17:49:11
(UTC+00:00)

Vanguard 1 Rocket - Pass Details

Date: 08 August 2021
Orbit: 650 x 4226 km, 34.3° (Epoch: 20 September)

Event Time Altitude Azimuth Distance (km) Brightness Sun altitude
Rises 17:35:20 0° 277° (W) 7,504 12.2 62.7°
Reaches altitude 10° 17:41:22 10° 273° (W) 5,948 11.8 62.2°
Maximum altitude 17:56:11 45° 208° (SSW) 2,408 11.5 60.9°
Drops below altitude 10° 18:04:04 10° 138° (SE) 3,241 10.5 60.1°
Sets 18:06:22 0° 131° (SE) 3,916 10.7 59.9°
